Location: Ciserano
(45.5833°N, 9.6000°E)
Time: 05:29:20
(UTC+00:00)

ATLAS 3B R/B - Pass Details

Date: 29 November 2020
Orbit: 1013 x 1182 km, 63.8° (Epoch: 08 January)

Event Time Altitude Azimuth Distance (km) Brightness Sun altitude
Exits shadow 03:30:35 35° 2° (N) 1,687 3.7 -32.4°
Maximum altitude 03:32:39 43° 41° (NE) 1,500 3.6 -32.0°
Drops below altitude 10° 03:39:23 10° 111° (ESE) 3,005 5.8 -30.9°
Sets 03:42:17 0° 118° (ESE) 3,985 6.6 -30.4°
